Grub im Wienerwald
Wetterdaten: aktuell Montag, 06.12.2021 12:54
Datum Zeit Temp. A. Feuchte A. Luftdruck Regen Wind Richtung Richtung Sonnenschein UV Solar Taupunkt Windchill Windben
06.12.2021 12:54 1,9 C 94 % 1010,9 hPa 0,0 l/m 4,3 km/h NW 304 0 min 0,0 UV-I 58 W/m 1,0 C 1,9 C 8,0 km/h
06.12.2021 12:51 1,9 C 94 % 1010,9 hPa 0,0 l/m 7,0 km/h NW 304 0 min 0,0 UV-I 69 W/m 1,0 C 1,3 C 12,9 km/h
06.12.2021 12:48 1,9 C 94 % 1010,8 hPa 0,0 l/m 6,6 km/h NW 311 0 min 0,6 UV-I 97 W/m 1,0 C 1,7 C 11,3 km/h
06.12.2021 12:45 1,9 C 94 % 1010,8 hPa 0,0 l/m 6,6 km/h NW 311 0 min 0,0 UV-I 65 W/m 1,0 C 1,7 C 9,7 km/h
06.12.2021 12:42 2,0 C 94 % 1010,8 hPa 0,0 l/m 7,8 km/h NW 313 0 min 0,0 UV-I 54 W/m 1,1 C 0,6 C 12,9 km/h
06.12.2021 12:39 2,0 C 94 % 1010,8 hPa 0,0 l/m 9,0 km/h NW 311 0 min 0,6 UV-I 63 W/m 1,1 C -0,4 C 16,1 km/h
06.12.2021 12:36 2,0 C 94 % 1010,8 hPa 0,0 l/m 9,7 km/h NW 311 0 min 0,0 UV-I 56 W/m 1,1 C -1,0 C 17,7 km/h
06.12.2021 12:33 2,0 C 94 % 1010,9 hPa 0,0 l/m 8,4 km/h N-NW 336 0 min 0,6 UV-I 67 W/m 1,1 C 0,1 C 14,5 km/h
06.12.2021 12:30 2,0 C 95 % 1010,9 hPa 0,0 l/m 12,0 km/h NW 325 0 min 0,0 UV-I 56 W/m 1,3 C -2,7 C 22,5 km/h
06.12.2021 12:27 1,9 C 95 % 1010,8 hPa 0,0 l/m 7,9 km/h NW 304 0 min 0,7 UV-I 98 W/m 1,2 C 0,4 C 12,9 km/h
06.12.2021 12:24 1,9 C 95 % 1010,9 hPa 0,0 l/m 9,9 km/h NW 319 0 min 0,6 UV-I 86 W/m 1,2 C -1,3 C 14,5 km/h
06.12.2021 12:21 1,9 C 95 % 1010,8 hPa 0,0 l/m 10,0 km/h NW 324 0 min 0,6 UV-I 109 W/m 1,2 C -1,4 C 17,7 km/h
06.12.2021 12:18 1,9 C 95 % 1010,8 hPa 0,0 l/m 9,5 km/h NW 321 0 min 0,7 UV-I 135 W/m 1,2 C -1,0 C 16,1 km/h
06.12.2021 12:15 1,9 C 95 % 1010,8 hPa 0,0 l/m 8,8 km/h NW 312 0 min 0,7 UV-I 111 W/m 1,2 C -0,4 C 16,1 km/h
06.12.2021 12:12 1,9 C 95 % 1010,9 hPa 0,0 l/m 5,0 km/h N-NW 336 0 min 0,6 UV-I 100 W/m 1,2 C 1,9 C 8,0 km/h
06.12.2021 12:09 1,9 C 95 % 1010,9 hPa 0,0 l/m 6,9 km/h N-NW 336 0 min 0,6 UV-I 91 W/m 1,2 C 1,4 C 12,9 km/h
06.12.2021 12:06 1,9 C 95 % 1010,9 hPa 0,0 l/m 7,2 km/h N-NW 332 0 min 0,6 UV-I 90 W/m 1,2 C 1,1 C 12,9 km/h
06.12.2021 12:03 1,9 C 95 % 1010,9 hPa 0,0 l/m 7,7 km/h N-NW 332 0 min 0,6 UV-I 88 W/m 1,2 C 0,6 C 11,3 km/h
06.12.2021 12:00 1,8 C 95 % 1010,9 hPa 0,0 l/m 7,2 km/h N-NW 332 0 min 0,6 UV-I 72 W/m 1,1 C 1,0 C 11,3 km/h
06.12.2021 11:57 1,9 C 95 % 1010,9 hPa 0,0 l/m 6,1 km/h N-NW 333 0 min 0,7 UV-I 116 W/m 1,2 C 1,9 C 9,7 km/h
06.12.2021 11:54 1,8 C 95 % 1011,0 hPa 0,0 l/m 6,8 km/h N-NW 333 0 min 0,6 UV-I 77 W/m 1,1 C 1,4 C 11,3 km/h
06.12.2021 11:51 1,8 C 95 % 1011,0 hPa 0,0 l/m 7,8 km/h N-NW 333 0 min 0,6 UV-I 69 W/m 1,1 C 0,4 C 14,5 km/h
06.12.2021 11:48 1,8 C 95 % 1011,0 hPa 0,0 l/m 6,7 km/h NW 309 0 min 0,6 UV-I 70 W/m 1,1 C 1,5 C 11,3 km/h
06.12.2021 11:45 1,8 C 95 % 1011,1 hPa 0,0 l/m 8,0 km/h NW 310 0 min 0,6 UV-I 77 W/m 1,1 C 0,2 C 14,5 km/h
06.12.2021 11:42 1,8 C 95 % 1011,1 hPa 0,0 l/m 7,8 km/h NW 310 0 min 0,7 UV-I 107 W/m 1,1 C 0,4 C 14,5 km/h
06.12.2021 11:39 1,8 C 95 % 1011,1 hPa 0,0 l/m 8,2 km/h NW 311 0 min 0,6 UV-I 83 W/m 1,1 C 0,1 C 16,1 km/h
06.12.2021 11:36 1,8 C 95 % 1011,1 hPa 0,0 l/m 8,6 km/h NW 319 0 min 0,6 UV-I 76 W/m 1,1 C -0,3 C 12,9 km/h
06.12.2021 11:33 1,8 C 95 % 1011,2 hPa 0,0 l/m 8,0 km/h W-NW 303 0 min 0,7 UV-I 116 W/m 1,1 C 0,2 C 12,9 km/h
06.12.2021 11:30 1,8 C 95 % 1011,2 hPa 0,0 l/m 8,3 km/h W-NW 298 0 min 0,6 UV-I 98 W/m 1,1 C -0,0 C 14,5 km/h
06.12.2021 11:27 1,8 C 96 % 1011,2 hPa 0,0 l/m 10,3 km/h NW 316 0 min 0,7 UV-I 90 W/m 1,2 C -1,7 C 19,3 km/h
06.12.2021 11:24 1,8 C 95 % 1011,2 hPa 0,0 l/m 8,8 km/h W-NW 298 0 min 0,7 UV-I 86 W/m 1,1 C -0,5 C 12,9 km/h
06.12.2021 11:21 1,8 C 96 % 1011,2 hPa 0,0 l/m 11,0 km/h NW 317 0 min 0,7 UV-I 107 W/m 1,2 C -2,2 C 16,1 km/h
06.12.2021 11:18 1,9 C 96 % 1011,2 hPa 0,0 l/m 9,6 km/h NW 317 0 min 0,7 UV-I 105 W/m 1,3 C -1,0 C 14,5 km/h
06.12.2021 11:15 1,9 C 96 % 1011,2 hPa 0,0 l/m 10,6 km/h NW 311 0 min 0,6 UV-I 74 W/m 1,3 C -1,8 C 19,3 km/h
06.12.2021 11:12 1,9 C 96 % 1011,2 hPa 0,0 l/m 8,0 km/h NW 309 0 min 0,6 UV-I 104 W/m 1,3 C 0,3 C 12,9 km/h
06.12.2021 11:09 1,9 C 96 % 1011,2 hPa 0,0 l/m 7,2 km/h NW 311 0 min 0,7 UV-I 105 W/m 1,3 C 1,1 C 11,3 km/h
06.12.2021 11:06 1,9 C 96 % 1011,2 hPa 0,0 l/m 7,1 km/h NW 311 0 min 0,7 UV-I 97 W/m 1,3 C 1,2 C 12,9 km/h
06.12.2021 11:03 1,9 C 96 % 1011,3 hPa 0,0 l/m 7,7 km/h NW 311 0 min 0,6 UV-I 100 W/m 1,3 C 0,6 C 14,5 km/h
06.12.2021 11:00 1,9 C 96 % 1011,2 hPa 0,0 l/m 9,6 km/h NW 313 0 min 0,7 UV-I 121 W/m 1,3 C -1,0 C 14,5 km/h
06.12.2021 10:57 1,9 C 97 % 1011,2 hPa 0,0 l/m 10,4 km/h W-NW 303 0 min 0,7 UV-I 134 W/m 1,5 C -1,7 C 19,3 km/h
06.12.2021 10:54 2,0 C 97 % 1011,3 hPa 0,0 l/m 8,4 km/h NW 322 0 min 0,6 UV-I 105 W/m 1,6 C 0,1 C 14,5 km/h
06.12.2021 10:51 2,0 C 97 % 1011,3 hPa 0,0 l/m 7,8 km/h N-NW 331 0 min 0,6 UV-I 90 W/m 1,6 C 0,6 C 12,9 km/h
06.12.2021 10:48 2,1 C 97 % 1011,3 hPa 0,0 l/m 9,9 km/h N-NW 338 0 min 0,7 UV-I 95 W/m 1,7 C -1,1 C 20,9 km/h
06.12.2021 10:45 2,1 C 97 % 1011,3 hPa 0,0 l/m 8,5 km/h NW 308 0 min 0,6 UV-I 107 W/m 1,7 C 0,1 C 16,1 km/h
06.12.2021 10:42 2,1 C 97 % 1011,3 hPa 0,0 l/m 8,7 km/h NW 306 0 min 0,7 UV-I 165 W/m 1,7 C -0,1 C 17,7 km/h
06.12.2021 10:39 2,0 C 97 % 1011,2 hPa 0,0 l/m 9,4 km/h NW 313 0 min 0,7 UV-I 151 W/m 1,6 C -0,8 C 12,9 km/h
06.12.2021 10:36 1,9 C 97 % 1011,2 hPa 0,0 l/m 9,9 km/h NW 306 3 min 0,8 UV-I 287 W/m 1,5 C -1,3 C 16,1 km/h
06.12.2021 10:33 1,9 C 97 % 1011,2 hPa 0,0 l/m 8,3 km/h NW 318 3 min 0,9 UV-I 396 W/m 1,5 C 0,1 C 14,5 km/h
06.12.2021 10:30 1,8 C 98 % 1011,3 hPa 0,0 l/m 10,2 km/h NW 319 3 min 0,9 UV-I 348 W/m 1,5 C -1,6 C 16,1 km/h
06.12.2021 10:27 1,8 C 97 % 1011,2 hPa 0,0 l/m 9,8 km/h N-NW 336 3 min 0,9 UV-I 362 W/m 1,4 C -1,3 C 19,3 km/h
06.12.2021 10:24 1,7 C 97 % 1011,2 hPa 0,0 l/m 6,3 km/h N-NW 331 3 min 0,8 UV-I 318 W/m 1,3 C 1,7 C 11,3 km/h
06.12.2021 10:21 1,7 C 97 % 1011,2 hPa 0,0 l/m 6,3 km/h N-NW 331 3 min 0,8 UV-I 251 W/m 1,3 C 1,7 C 11,3 km/h
06.12.2021 10:18 1,6 C 97 % 1011,1 hPa 0,0 l/m 6,7 km/h N-NW 334 3 min 0,8 UV-I 216 W/m 1,2 C 1,3 C 9,7 km/h
06.12.2021 10:15 1,6 C 98 % 1011,2 hPa 0,0 l/m 6,8 km/h N-NW 335 3 min 0,7 UV-I 183 W/m 1,3 C 1,2 C 11,3 km/h
06.12.2021 10:12 1,6 C 98 % 1011,2 hPa 0,0 l/m 7,1 km/h N-NW 336 3 min 0,7 UV-I 171 W/m 1,3 C 0,9 C 12,9 km/h
06.12.2021 10:09 1,5 C 98 % 1011,1 hPa 0,0 l/m 7,0 km/h N-NW 336 3 min 0,7 UV-I 156 W/m 1,2 C 0,9 C 11,3 km/h
06.12.2021 10:06 1,5 C 98 % 1011,1 hPa 0,0 l/m 7,9 km/h N-NW 337 0 min 0,7 UV-I 146 W/m 1,2 C 0,0 C 16,1 km/h
06.12.2021 10:03 1,4 C 97 % 1011,1 hPa 0,0 l/m 8,1 km/h NW 307 0 min 0,7 UV-I 141 W/m 1,0 C -0,3 C 14,5 km/h
06.12.2021 10:00 1,4 C 97 % 1011,0 hPa 0,0 l/m 6,9 km/h NW 322 0 min 0,7 UV-I 137 W/m 1,0 C 0,9 C 11,3 km/h
06.12.2021 09:57 1,3 C 97 % 1011,0 hPa 0,0 l/m 4,3 km/h NW 323 0 min 0,6 UV-I 125 W/m 0,9 C 1,3 C 6,4 km/h
06.12.2021 09:54 1,3 C 97 % 1011,0 hPa 0,0 l/m 5,1 km/h NW 323 0 min 0,6 UV-I 123 W/m 0,9 C 1,3 C 9,7 km/h
06.12.2021 09:51 1,3 C 97 % 1011,0 hPa 0,0 l/m 5,9 km/h NW 323 0 min 0,6 UV-I 116 W/m 0,9 C 1,3 C 9,7 km/h
06.12.2021 09:48 1,3 C 97 % 1011,0 hPa 0,0 l/m 3,6 km/h NW 323 0 min 0,6 UV-I 104 W/m 0,9 C 1,3 C 6,4 km/h
06.12.2021 09:45 1,3 C 97 % 1010,9 hPa 0,0 l/m 6,6 km/h NW 323 0 min 0,6 UV-I 100 W/m 0,9 C 1,1 C 11,3 km/h
06.12.2021 09:42 1,2 C 98 % 1010,8 hPa 0,0 l/m 7,5 km/h NW 320 0 min 0,6 UV-I 100 W/m 0,9 C 0,1 C 11,3 km/h
06.12.2021 09:39 1,2 C 98 % 1010,8 hPa 0,0 l/m 4,0 km/h NW 317 0 min 0,6 UV-I 102 W/m 0,9 C 1,2 C 8,0 km/h
06.12.2021 09:36 1,2 C 97 % 1010,8 hPa 0,0 l/m 5,1 km/h NW 317 0 min 0,6 UV-I 105 W/m 0,8 C 1,2 C 11,3 km/h
06.12.2021 09:33 1,2 C 97 % 1010,8 hPa 0,0 l/m 5,9 km/h NW 317 0 min 0,6 UV-I 104 W/m 0,8 C 1,2 C 12,9 km/h
06.12.2021 09:30 1,2 C 97 % 1010,8 hPa 0,0 l/m 3,9 km/h NW 318 0 min 0,6 UV-I 102 W/m 0,8 C 1,2 C 6,4 km/h
06.12.2021 09:27 1,1 C 97 % 1010,7 hPa 0,0 l/m 6,5 km/h NW 318 0 min 0,6 UV-I 98 W/m 0,7 C 1,0 C 9,7 km/h
06.12.2021 09:24 1,1 C 97 % 1010,7 hPa 0,0 l/m 7,5 km/h NW 318 0 min 0,6 UV-I 93 W/m 0,7 C -0,0 C 12,9 km/h
06.12.2021 09:21 1,1 C 97 % 1010,7 hPa 0,0 l/m 5,8 km/h NW 318 0 min 0,0 UV-I 83 W/m 0,7 C 1,1 C 11,3 km/h
06.12.2021 09:18 1,1 C 97 % 1010,7 hPa 0,0 l/m 5,8 km/h NW 318 0 min 0,0 UV-I 77 W/m 0,7 C 1,1 C 8,0 km/h
06.12.2021 09:15 1,1 C 97 % 1010,6 hPa 0,0 l/m 4,6 km/h NW 318 0 min 0,0 UV-I 72 W/m 0,7 C 1,1 C 9,7 km/h
06.12.2021 09:12 1,0 C 97 % 1010,7 hPa 0,0 l/m 4,9 km/h NW 318 0 min 0,0 UV-I 77 W/m 0,6 C 1,0 C 8,0 km/h
06.12.2021 09:09 1,0 C 97 % 1010,6 hPa 0,0 l/m 5,5 km/h NW 318 0 min 0,0 UV-I 74 W/m 0,6 C 1,0 C 8,0 km/h
06.12.2021 09:06 1,0 C 97 % 1010,6 hPa 0,0 l/m 10,1 km/h NW 318 0 min 0,0 UV-I 74 W/m 0,6 C -2,4 C 16,1 km/h
06.12.2021 09:03 0,9 C 97 % 1010,6 hPa 0,0 l/m 8,3 km/h N-NW 327 0 min 0,0 UV-I 69 W/m 0,5 C -1,0 C 14,5 km/h
06.12.2021 09:00 0,9 C 97 % 1010,7 hPa 0,0 l/m 7,0 km/h NW 326 0 min 0,0 UV-I 63 W/m 0,5 C 0,3 C 11,3 km/h
06.12.2021 08:57 0,9 C 97 % 1010,7 hPa 0,0 l/m 5,8 km/h NW 326 0 min 0,0 UV-I 65 W/m 0,5 C 0,9 C 12,9 km/h
06.12.2021 08:54 0,9 C 97 % 1010,7 hPa 0,0 l/m 3,3 km/h N-NW 329 0 min 0,0 UV-I 63 W/m 0,5 C 0,9 C 6,4 km/h
06.12.2021 08:51 0,9 C 97 % 1010,7 hPa 0,0 l/m 6,3 km/h N-NW 329 0 min 0,0 UV-I 56 W/m 0,5 C 0,9 C 12,9 km/h
06.12.2021 08:48 0,9 C 97 % 1010,7 hPa 0,0 l/m 6,8 km/h N-NW 337 0 min 0,0 UV-I 49 W/m 0,5 C 0,5 C 11,3 km/h
06.12.2021 08:45 0,9 C 97 % 1010,7 hPa 0,0 l/m 8,6 km/h N-NW 338 0 min 0,0 UV-I 42 W/m 0,5 C -1,3 C 14,5 km/h
06.12.2021 08:42 0,9 C 97 % 1010,7 hPa 0,0 l/m 4,3 km/h NW 316 0 min 0,0 UV-I 40 W/m 0,5 C 0,9 C 9,7 km/h
06.12.2021 08:39 0,9 C 97 % 1010,7 hPa 0,0 l/m 7,0 km/h NW 313 0 min 0,0 UV-I 37 W/m 0,5 C 0,3 C 14,5 km/h
06.12.2021 08:36 0,8 C 97 % 1010,7 hPa 0,0 l/m 3,6 km/h NW 321 0 min 0,0 UV-I 37 W/m 0,4 C 0,8 C 9,7 km/h
06.12.2021 08:33 0,8 C 97 % 1010,7 hPa 0,0 l/m 3,9 km/h NW 321 0 min 0,0 UV-I 39 W/m 0,4 C 0,8 C 9,7 km/h
06.12.2021 08:30 0,8 C 97 % 1010,7 hPa 0,0 l/m 5,7 km/h NW 321 0 min 0,0 UV-I 35 W/m 0,4 C 0,8 C 9,7 km/h
06.12.2021 08:27 0,8 C 97 % 1010,6 hPa 0,0 l/m 3,3 km/h NW 321 0 min 0,0 UV-I 32 W/m 0,4 C 0,8 C 6,4 km/h
06.12.2021 08:24 0,8 C 97 % 1010,5 hPa 0,0 l/m 3,1 km/h NW 321 0 min 0,0 UV-I 26 W/m 0,4 C 0,8 C 6,4 km/h
_ Min-Zeit 04:48 12:33 14:33 - 15:21 - - - - - 04:48 07:33 15:21
Minimum _ 0,6 C 94 % 1004,4 hPa - 0,0 km/h - - - - - 0,2 C -3,4 C 0,0 km/h
_ Max-Zeit 10:42 09:39 10:30 13:33 12:30 - - 10:09 10:27 10:33 10:42 13:27 12:30
Maximum _ 2,1 C 98 % 1011,3 hPa 0,2 l/m 12,0 km/h
NW
- - 3 min 0,9 UV-I 396 W/m 1,7 C 1,9 C 22,5 km/h
NW
Durchschnitt _ 1,2 C 96 % 1007,4 hPa #3,4 l/m 5,0 km/h N-NW - #30 min. 0,7 UV-I 93 W/m 0,7 C 0,7 C 8,9 km/h
Schulla EDV